Location: Skalnate Pleso
(49.1889°N, 20.2450°E)
Time: 14:44:59
(UTC+01:00)

USA 234 - Pass Details

Date: 19 November 2019
Orbit: 1099 x 1108 km, 123.0° (Epoch: 30 November)

Event Time Altitude Azimuth Distance (km) Brightness Sun altitude
Rises 05:10:29 0° 85° (E) 3,915 7.7 -16.8°
Reaches altitude 10° 05:13:03 10° 80° (E) 2,958 6.6 -16.3°
Maximum altitude 05:19:14 48° 9° (N) 1,417 3.8 -15.4°
Enters shadow 05:23:56 18° 303° (WNW) 2,438 4.5 -14.6°
